Hourly Weather Kistenli-Ivanovka

Today, 21 October, Wednesday

Time Temperature Precipitation Wind Pressure Humidity
00:00 +2°C° 0 mm 2 mps 731 mmHg 68%
01:00 +2°C° 0 mm 2 mps 730 mmHg 68%
02:00 +2°C° 0 mm 2 mps 730 mmHg 69%
03:00 +2°C° 0 mm 2 mps 730 mmHg 70%
04:00 +2°C° 0 mm 2 mps 730 mmHg 74%
05:00 +1°C° 0.1 mm 2 mps 730 mmHg 77%
06:00 0°C° 0.1 mm 3 mps 730 mmHg 80%
07:00 0°C° 0.1 mm 3 mps 730 mmHg 83%
08:00 -1°C° 0.1 mm 4 mps 730 mmHg 80%
09:00 0°C° 0.1 mm 5 mps 730 mmHg 77%
10:00 +1°C° 0 mm 5 mps 730 mmHg 73%
11:00 +1°C° 0 mm 5 mps 730 mmHg 70%
12:00 +1°C° 0 mm 6 mps 730 mmHg 68%
13:00 +1°C° 0 mm 6 mps 730 mmHg 66%
14:00 +1°C° 0.1 mm 6 mps 730 mmHg 64%
15:00 +1°C° 0.1 mm 6 mps 730 mmHg 63%
16:00 +1°C° 0 mm 6 mps 730 mmHg 61%
17:00 -1°C° 0.1 mm 6 mps 730 mmHg 65%
18:00 -2°C° 0.1 mm 6 mps 731 mmHg 69%
19:00 -2°C° 0.1 mm 7 mps 731 mmHg 74%
20:00 -3°C° 0 mm 6 mps 731 mmHg 72%
21:00 -4°C° 0 mm 5 mps 731 mmHg 71%
22:00 -5°C° 0 mm 5 mps 731 mmHg 70%
23:00 -5°C° 0 mm 5 mps 731 mmHg 74%

Tomorrow, 22 October, Thursday

Time Temperature Precipitation Wind Pressure Humidity
00:00 -5°C° 0 mm 5 mps 731 mmHg 77%
01:00 -5°C° 0 mm 5 mps 732 mmHg 81%
02:00 -5°C° 0 mm 5 mps 732 mmHg 81%
03:00 -5°C° 0 mm 5 mps 732 mmHg 80%
04:00 -5°C° 0 mm 5 mps 732 mmHg 79%
05:00 -5°C° 0 mm 6 mps 732 mmHg 80%
06:00 -5°C° 0 mm 6 mps 733 mmHg 81%
07:00 -5°C° 0 mm 6 mps 733 mmHg 82%
08:00 -5°C° 0 mm 6 mps 733 mmHg 79%
09:00 -4°C° 0 mm 6 mps 733 mmHg 76%
10:00 -4°C° 0 mm 6 mps 734 mmHg 73%
11:00 -4°C° 0 mm 6 mps 734 mmHg 72%
12:00 -3°C° 0 mm 6 mps 734 mmHg 71%
13:00 -3°C° 0 mm 6 mps 734 mmHg 71%
14:00 -3°C° 0 mm 6 mps 734 mmHg 71%
15:00 -3°C° 0 mm 6 mps 735 mmHg 72%
16:00 -3°C° 0 mm 6 mps 735 mmHg 73%
17:00 -4°C° 0 mm 5 mps 735 mmHg 74%
18:00 -4°C° 0 mm 5 mps 735 mmHg 76%
19:00 -4°C° 0 mm 5 mps 735 mmHg 77%
20:00 -3°C° 0 mm 4 mps 735 mmHg 78%
21:00 -3°C° 0 mm 4 mps 735 mmHg 79%
22:00 -4°C° 0 mm 3 mps 736 mmHg 79%
23:00 -4°C° 0 mm 3 mps 735 mmHg 81%

Day after tomorrow, 23 October, Friday

Time Temperature Precipitation Wind Pressure Humidity
00:00 -4°C° 0 mm 3 mps 735 mmHg 82%
01:00 -4°C° 0 mm 3 mps 735 mmHg 83%
02:00 -3°C° 0 mm 2 mps 735 mmHg 85%
03:00 -4°C° 0 mm 2 mps 736 mmHg 87%
04:00 -4°C° 0 mm 2 mps 736 mmHg 88%
05:00 -2°C° 0 mm 1 mps 736 mmHg 89%
06:00 -2°C° 0 mm 1 mps 736 mmHg 89%
07:00 -2°C° 0 mm 1 mps 736 mmHg 90%
08:00 -1°C° 0 mm 1 mps 736 mmHg 83%
09:00 -2°C° 0 mm 2 mps 736 mmHg 77%
10:00 -1°C° 0 mm 3 mps 736 mmHg 70%
11:00 -1°C° 0 mm 3 mps 735 mmHg 67%
12:00 -1°C° 0 mm 4 mps 735 mmHg 63%
13:00 0°C° 0 mm 4 mps 735 mmHg 60%
14:00 0°C° 0 mm 4 mps 734 mmHg 64%
15:00 -1°C° 0 mm 5 mps 734 mmHg 68%
16:00 -1°C° 0 mm 5 mps 734 mmHg 73%
17:00 -1°C° 0.2 mm 5 mps 733 mmHg 81%
18:00 -1°C° 0.2 mm 5 mps 733 mmHg 89%
19:00 -2°C° 0.2 mm 5 mps 732 mmHg 97%
20:00 -1°C° 0.3 mm 5 mps 732 mmHg 96%
21:00 0°C° 0.3 mm 5 mps 731 mmHg 96%
22:00 0°C° 0.3 mm 5 mps 731 mmHg 96%
23:00 0°C° 0.2 mm 5 mps 730 mmHg 96%

24 October, Saturday

Time Temperature Precipitation Wind Pressure Humidity
00:00 +1°C° 0.2 mm 5 mps 729 mmHg 97%
01:00 +1°C° 0.2 mm 5 mps 729 mmHg 97%
02:00 +1°C° 0.3 mm 5 mps 729 mmHg 97%
03:00 +1°C° 0.3 mm 5 mps 728 mmHg 97%
04:00 +2°C° 0.3 mm 5 mps 728 mmHg 97%
05:00 +2°C° 0.1 mm 5 mps 727 mmHg 97%
06:00 +3°C° 0.1 mm 5 mps 727 mmHg 97%
07:00 +3°C° 0.1 mm 5 mps 727 mmHg 98%
08:00 +3°C° 0.7 mm 6 mps 726 mmHg 97%
09:00 +3°C° 0.7 mm 6 mps 726 mmHg 97%
10:00 +4°C° 0.7 mm 7 mps 726 mmHg 97%
11:00 +4°C° 1.2 mm 7 mps 725 mmHg 97%
12:00 +4°C° 1.2 mm 7 mps 725 mmHg 96%
13:00 +5°C° 1.2 mm 6 mps 725 mmHg 96%
14:00 +5°C° 0.7 mm 6 mps 725 mmHg 95%
15:00 +5°C° 0.7 mm 6 mps 725 mmHg 95%
16:00 +7°C° 0.7 mm 6 mps 725 mmHg 94%
17:00 +7°C° 0 mm 6 mps 725 mmHg 94%
18:00 +7°C° 0 mm 5 mps 726 mmHg 95%
19:00 +6°C° 0 mm 4 mps 726 mmHg 95%
20:00 +6°C° 0.1 mm 4 mps 727 mmHg 95%
21:00 +6°C° 0.1 mm 4 mps 727 mmHg 94%
22:00 +6°C° 0.1 mm 5 mps 727 mmHg 94%
23:00 +6°C° 0 mm 4 mps 728 mmHg 94%

25 October, Sunday

Time Temperature Precipitation Wind Pressure Humidity
00:00 +5°C° 0 mm 4 mps 728 mmHg 94%
01:00 +5°C° 0 mm 4 mps 728 mmHg 94%
02:00 +5°C° 0 mm 4 mps 729 mmHg 93%
03:00 +5°C° 0 mm 4 mps 729 mmHg 92%
04:00 +5°C° 0 mm 3 mps 729 mmHg 91%
05:00 +5°C° 0 mm 3 mps 730 mmHg 90%
06:00 +5°C° 0 mm 3 mps 730 mmHg 89%
07:00 +5°C° 0 mm 3 mps 730 mmHg 88%
08:00 +5°C° 0 mm 3 mps 731 mmHg 87%
09:00 +7°C° 0 mm 3 mps 731 mmHg 85%
10:00 +7°C° 0 mm 3 mps 731 mmHg 84%
11:00 +8°C° 0 mm 2 mps 731 mmHg 79%
12:00 +8°C° 0 mm 2 mps 732 mmHg 74%
13:00 +9°C° 0 mm 2 mps 732 mmHg 69%
14:00 +9°C° 0 mm 2 mps 732 mmHg 71%
15:00 +9°C° 0 mm 1 mps 731 mmHg 73%
16:00 +9°C° 0 mm 1 mps 731 mmHg 76%
17:00 +9°C° 0 mm 1 mps 731 mmHg 79%
18:00 +7°C° 0 mm 2 mps 731 mmHg 81%
19:00 +7°C° 0 mm 2 mps 731 mmHg 84%
20:00 +7°C° 0.2 mm 2 mps 730 mmHg 86%
21:00 +7°C° 0.2 mm 2 mps 730 mmHg 88%
22:00 +7°C° 0.2 mm 2 mps 729 mmHg 90%
23:00 +7°C° 1.2 mm 3 mps 729 mmHg 93%

26 October, Monday

Time Temperature Precipitation Wind Pressure Humidity
00:00 +7°C° 1.2 mm 3 mps 728 mmHg 95%
01:00 +7°C° 1.2 mm 3 mps 727 mmHg 97%
02:00 +7°C° 1.5 mm 3 mps 727 mmHg 98%
03:00 +8°C° 1.5 mm 2 mps 726 mmHg 98%
04:00 +8°C° 1.5 mm 2 mps 726 mmHg 98%
05:00 +8°C° 0.6 mm 2 mps 726 mmHg 98%
06:00 +8°C° 0.6 mm 2 mps 726 mmHg 98%
07:00 +8°C° 0.6 mm 2 mps 725 mmHg 98%
08:00 +8°C° 1.7 mm 2 mps 725 mmHg 98%
09:00 +8°C° 1.7 mm 2 mps 725 mmHg 98%
10:00 +8°C° 1.7 mm 2 mps 725 mmHg 98%
11:00 +8°C° 0.9 mm 2 mps 725 mmHg 97%
12:00 +7°C° 0.9 mm 3 mps 725 mmHg 97%
13:00 +7°C° 0.9 mm 3 mps 725 mmHg 96%
14:00 +6°C° 1.2 mm 4 mps 726 mmHg 94%
15:00 +5°C° 1.2 mm 5 mps 726 mmHg 93%
16:00 +4°C° 1.2 mm 6 mps 726 mmHg 91%
17:00 +3°C° 0.3 mm 7 mps 726 mmHg 91%
18:00 +3°C° 0.3 mm 7 mps 727 mmHg 90%
19:00 +3°C° 0.3 mm 7 mps 727 mmHg 89%
20:00 +2°C° 0.3 mm 7 mps 727 mmHg 88%
21:00 +1°C° 0.3 mm 8 mps 728 mmHg 88%
22:00 0°C° 0.3 mm 8 mps 728 mmHg 87%
23:00 -1°C° 0 mm 8 mps 728 mmHg 83%

27 October, Tuesday

Time Temperature Precipitation Wind Pressure Humidity
00:00 -2°C° 0 mm 8 mps 729 mmHg 80%
01:00 -2°C° 0 mm 8 mps 729 mmHg 76%
02:00 -4°C° 0 mm 9 mps 729 mmHg 76%
03:00 -5°C° 0 mm 9 mps 730 mmHg 76%
04:00 -5°C° 0 mm 9 mps 730 mmHg 76%
05:00 -5°C° 0 mm 9 mps 730 mmHg 78%
06:00 -6°C° 0 mm 9 mps 730 mmHg 80%
07:00 -7°C° 0 mm 10 mps 731 mmHg 82%
08:00 -7°C° 0.1 mm 10 mps 731 mmHg 82%
09:00 -5°C° 0.1 mm 10 mps 731 mmHg 82%
10:00 -6°C° 0.1 mm 11 mps 731 mmHg 82%
11:00 -6°C° 0.2 mm 11 mps 731 mmHg 83%
12:00 -6°C° 0.2 mm 11 mps 731 mmHg 83%
13:00 -4°C° 0.2 mm 11 mps 732 mmHg 84%
14:00 -4°C° 0 mm 11 mps 732 mmHg 83%
15:00 -4°C° 0 mm 11 mps 733 mmHg 82%
16:00 -4°C° 0 mm 11 mps 733 mmHg 81%
17:00 -4°C° 0 mm 10 mps 734 mmHg 81%
18:00 -4°C° 0 mm 10 mps 734 mmHg 81%
19:00 -4°C° 0 mm 9 mps 735 mmHg 81%
20:00 -4°C° 0 mm 9 mps 735 mmHg 82%
21:00 -5°C° 0 mm 9 mps 736 mmHg 83%
22:00 -5°C° 0 mm 9 mps 736 mmHg 84%
23:00 -5°C° 0 mm 9 mps 737 mmHg 84%
Show more